IZ2OSD Weather Reports


time (UTC)temp
C
wind
direction
speed
KPH
gust
KPH
rain 1hr
cm
rain 24hr
cm
rain mn
cm
humidity
%
barometer
mb
20260507002945 11 315 1.6 3.2 0.00 1.42 0.00 89 1009.7
20260507001943 11 292 1.6 4.8 0.00 1.42 0.00 90 1009.8
20260507000939 11 292 1.6 4.8 0.00 1.42 0.00 90 1009.9
20260506235934 11 315 3.2 4.8 0.00 1.42 0.00 91 1009.8
20260506234931 11 292 3.2 4.8 0.00 1.42 0.00 91 1010.0
20260506233928 11 292 4.8 6.4 0.00 1.42 0.00 90 1009.9
20260506232924 11 292 3.2 4.8 0.00 1.42 0.00 91 1009.8
20260506231920 11 292 0.0 1.6 0.00 1.42 0.00 90 1009.7
20260506230937 11 315 3.2 4.8 0.00 1.42 0.00 90 1009.8
20260506225933 11 315 4.8 6.4 0.00 1.42 0.00 90 1009.4
20260506224909 11 292 1.6 3.2 0.00 1.42 0.00 90 1009.5
20260506223906 11 315 1.6 4.8 0.00 1.42 0.00 90 1009.6
20260506222118 11 292 1.6 3.2 0.00 1.42 0.00 92 1009.6
20260506221116 11 292 0.0 3.2 0.00 1.42 0.00 91 1009.5
20260506220211 11 292 1.6 4.8 0.00 1.42 0.00 91 1009.4
20260506215128 11 292 0.0 3.2 0.00 1.42 1.42 91 1009.3
20260506214104 11 292 0.0 1.6 0.00 1.42 1.42 91 1009.5
20260506213101 11 0.0 1.6 0.00 1.42 1.42 91 1009.5
20260506212059 11 292 0.0 1.6 0.00 1.42 1.42 91 1009.2
20260506211055 11 292 0.0 1.6 0.00 1.42 1.42 91 1009.3
20260506210051 11 0.0 0.0 0.00 1.42 1.42 91 1009.3
20260506205049 11 292 0.0 1.6 0.00 1.42 1.42 91 1009.1
20260506204045 11 0.0 0.0 0.00 1.42 1.42 92 1009.1
20260506203041 11 315 1.6 4.8 0.00 1.42 1.42 92 1009.2
20260506202037 11 315 1.6 3.2 0.00 1.42 1.42 92 1009.1
20260506201053 11 315 4.8 9.7 0.00 1.42 1.42 92 1009.1
20260506200032 11 315 3.2 4.8 0.00 1.42 1.42 92 1008.9
20260506195025 11 315 1.6 3.2 0.00 1.42 1.42 92 1008.9
20260506194019 11 0.0 0.0 0.00 1.45 1.42 92 1008.7
20260506193017 11 0.0 0.0 0.00 1.45 1.42 92 1008.5
20260506192016 11 315 1.6 3.2 0.28 1.45 1.42 91 1008.2
20260506191010 12 315 0.0 1.6 0.28 1.45 1.42 90 1007.8
20260506190007 11 315 4.8 14.5 0.28 1.45 1.42 90 1007.2
20260506185003 11 292 8.0 16.1 0.28 1.45 1.42 92 1007.3
20260506184020 11 292 12.9 19.3 0.28 1.45 1.42 93 1007.5
20260506182956 12 315 4.8 4.8 0.23 1.40 1.37 90 1008.0
20260506182012 13 315 1.6 4.8 0.00 1.17 1.12 88 1008.6
20260506180949 13 0.0 0.0 0.00 1.17 1.12 86 1007.7
20260506175947 13 0.0 0.0 0.00 1.17 1.12 86 1007.4
20260506174941 13 315 1.6 3.2 0.00 1.17 1.12 85 1006.9
20260506173938 13 315 1.6 3.2 0.00 1.17 1.12 84 1007.0
20260506172935 13 315 1.6 3.2 0.00 1.17 1.12 85 1006.8
20260506171931 13 315 3.2 6.4 0.00 1.17 1.12 85 1006.7
20260506170927 13 315 1.6 3.2 0.00 1.17 1.12 86 1006.6
20260506165923 12 315 6.4 12.9 0.00 1.17 1.12 86 1006.5
20260506164917 13 270 6.4 17.7 0.00 1.17 1.12 85 1006.4
20260506163934 13 315 3.2 4.8 0.00 1.17 1.12 85 1006.7
20260506162911 13 0.0 1.6 0.00 1.17 1.12 87 1006.3
20260506161930 13 0.0 0.0 0.00 1.17 1.12 87 1005.9
20260506160928 13 315 6.4 12.9 0.00 1.19 1.12 87 1005.2
20260506155902 13 45 6.4 12.9 0.03 1.19 1.12 88 1005.2
20260506154859 13 315 3.2 6.4 0.10 1.19 1.12 89 1005.4
20260506153855 13 337 9.7 12.9 0.23 1.22 1.12 88 1005.9
20260506152851 13 315 4.8 6.4 0.23 1.22 1.12 88 1005.7
20260506151908 12 315 1.6 3.2 0.23 1.22 1.12 93 1005.3
20260506150845 11 315 4.8 6.4 0.23 1.22 1.12 92 1005.6
20260506145841 11 315 8.0 14.5 0.20 1.19 1.09 90 1006.0
20260506144838 12 292 6.4 9.7 0.10 1.09 1.02 90 1006.0
20260506143835 13 315 1.6 3.2 0.00 0.97 0.89 82 1006.4
20260506142830 14 315 9.7 14.5 0.00 0.97 0.89 83 1005.5
20260506141828 16 0.0 1.6 0.00 0.97 0.89 79 1005.8
20260506140825 17 45 3.2 9.7 0.00 1.02 0.89 83 1005.6
20260506135900 17 292 4.8 12.9 0.00 1.02 0.89 83 1005.3
20260506134816 17 90 9.7 17.7 0.00 1.02 0.89 83 1005.6
20260506133835 17 112 6.4 16.1 0.00 1.02 0.89 83 1005.5
20260506132812 16 135 14.5 29.0 0.00 1.02 0.89 84 1005.5
20260506131807 16 337 11.3 17.7 0.00 1.02 0.89 85 1005.5
20260506130803 16 45 11.3 27.4 0.00 1.02 0.89 83 1006.0
20260506125820 16 22 9.7 24.1 0.00 1.02 0.89 83 1006.2
20260506124756 16 337 11.3 24.1 0.00 1.02 0.89 84 1006.3
20260506123752 16 225 6.4 16.1 0.00 1.02 0.89 85 1006.3
20260506122748 16 90 6.4 19.3 0.00 1.02 0.89 85 1006.4
20260506121745 16 135 6.4 14.5 0.00 1.02 0.89 84 1006.4
20260506120742 16 67 6.4 12.9 0.00 1.02 0.89 84 1006.4
20260506115739 16 202 9.7 20.9 0.00 1.02 0.89 85 1006.3
20260506114735 15 112 9.7 20.9 0.00 1.02 0.89 87 1006.2
20260506113732 15 112 11.3 24.1 0.00 1.04 0.89 87 1006.7
20260506112729 15 135 12.9 24.1 0.00 1.04 0.89 86 1006.5
20260506111725 15 315 12.9 20.9 0.00 1.07 0.89 87 1006.8
20260506110722 15 112 11.3 17.7 0.00 1.09 0.89 86 1006.7
20260506105718 15 112 9.7 16.1 0.00 1.09 0.89 87 1006.6
20260506104715 15 67 6.4 16.1 0.00 1.12 0.89 89 1007.1
20260506103733 15 292 11.3 20.9 0.00 1.17 0.89 88 1006.9
20260506102709 15 202 8.0 19.3 0.00 1.19 0.89 88 1006.8
20260506101705 15 315 11.3 17.7 0.00 1.24 0.89 90 1007.0
20260506100704 14 45 9.7 14.5 0.00 1.27 0.89 93 1007.2
20260506095659 13 337 11.3 24.1 0.00 1.30 0.89 95 1006.9
20260506094657 13 315 8.0 24.1 0.10 1.30 0.89 98 1006.9
20260506093713 13 270 8.0 17.7 0.20 1.35 0.89 99 1006.8
20260506092709 13 112 11.3 17.7 0.25 1.35 0.89 99 1007.0
20260506091646 12 90 6.4 16.1 0.38 1.37 0.89 99 1007.0
20260506090642 12 337 11.3 24.1 0.58 1.37 0.89 99 1006.7
20260506085639 12 45 12.9 19.3 0.69 1.37 0.89 99 1006.2
20260506084637 12 315 17.7 32.2 0.61 1.24 0.76 99 1006.1
20260506083633 12 157 8.0 16.1 0.56 1.17 0.69 99 1006.7
20260506082647 12 292 8.0 17.7 0.51 1.09 0.61 98 1007.0
20260506081624 12 45 4.8 9.7 0.38 0.97 0.51 98 1007.1
20260506080621 12 315 6.4 12.9 0.18 0.76 0.28 97 1007.3
20260506072607 12 67 6.4 12.9 0.00 0.61 0.10 98 1007.2
20260506071604 12 292 4.8 14.5 0.00 0.64 0.10 99 1006.9
20260506070600 12 0 9.7 16.1 0.00 0.74 0.10 99 1007.2
20260506061541 12 0 3.2 6.4 0.00 0.97 0.10 99 1007.6
20260506060558 12 0 3.2 6.4 0.00 1.04 0.10 99 1007.6
20260506050515 12 337 6.4 12.9 0.05 1.17 0.10 99 1007.6
20260506044508 12 112 8.0 17.7 0.05 1.17 0.10 99 1007.9
20260506043505 12 112 4.8 12.9 0.05 1.17 0.10 99 1008.0
20260506042459 12 292 3.2 6.4 0.08 1.17 0.10 99 1008.0
20260506041456 12 292 4.8 9.7 0.05 1.12 0.08 99 1008.0
20260506040453 12 315 3.2 9.7 0.03 1.09 0.05 99 1008.4
20260506035512 12 135 3.2 4.8 0.03 1.09 0.05 99 1008.0
20260506034443 12 292 4.8 12.9 0.03 1.09 0.05 99 1007.9
20260506033440 12 112 4.8 9.7 0.05 1.09 0.05 99 1008.2
20260506032436 12 90 3.2 6.4 0.03 1.07 0.03 99 1008.5
20260506031432 12 0 4.8 14.5 0.03 1.07 0.03 99 1008.3
20260506030428 12 315 0.0 3.2 0.03 1.07 0.03 99 1008.5
20260506025425 12 112 1.6 4.8 0.03 1.07 0.03 99 1009.0
20260506024421 12 90 3.2 6.4 0.03 1.07 0.03 98 1008.8
20260506023418 12 292 1.6 4.8 0.00 1.04 0.00 98 1008.7
20260506022414 12 135 3.2 9.7 0.00 1.04 0.00 98 1009.2
20260506021410 12 112 1.6 4.8 0.00 1.04 0.00 98 1009.0
20260506020407 12 90 1.6 4.8 0.00 1.04 0.00 98 1009.5
20260506015405 12 112 3.2 6.4 0.00 1.04 0.00 99 1009.3
20260506014402 12 112 4.8 12.9 0.00 1.04 0.00 98 1009.2
20260506013358 12 90 4.8 12.9 0.00 1.04 0.00 99 1009.4
20260506012355 12 292 4.8 9.7 0.00 1.04 0.00 99 1009.3
20260506011352 12 135 1.6 4.8 0.00 1.04 0.00 99 1009.3
20260506010348 12 315 4.8 9.7 0.00 1.04 0.00 99 1009.6
20260506005346 12 112 4.8 6.4 0.00 1.04 0.00 99 1009.5
20260506004342 12 135 3.2 9.7 0.00 1.04 0.00 99 1009.8
20260506003339 12 45 3.2 6.4 0.00 1.04 0.00 99 1009.9